Location: Unnamed
(23.5608°S, 46.6833°W)
Time: 11:10:10
(UTC-03:00)

Tiangong - Visible Passes

Search period start: 22 May 2024 00:00
Search period end: 01 June 2024 00:00
Orbit: 371 x 375 km, 41.5° (Epoch: 22 May)

Date Brightness Start Highest point End Pass type
(mag) Time Alt. Az. Time Alt. Az. Time Alt. Az.
27 May -0.4 18:20:09 10° SSW 18:22:19 17° SSE 18:22:35 17° SE visible
28 May -1.8 18:51:53 10° SW 18:54:28 55° SSW 18:54:28 55° SSW visible
29 May -1.1 17:48:04 10° SSW 17:50:49 27° SSE 17:53:32 10° E visible
29 May 0.6 19:24:50 10° W 19:26:36 19° WNW 19:26:36 19° WNW visible
30 May -1.5 18:20:05 10° WSW 18:23:07 56° NW 18:26:09 10° NE visible
31 May 1.2 18:54:11 10° WNW 18:55:05 11° NW 18:55:59 10° NNW visible
